Home > Weather > Montpellier > Past weeks

Flag for France Past Weather in Montpellier, Languedoc-Roussillon, France — Yesterday and Last 2 Weeks

Now
90 °F

Sunny.


Feels Like: 88 °F
Forecast: 64 / 91 °F
Wind: 13 mph from Northwest

Location: Montpellier Airport

Current Time: Jul 28, 2016 at 8:29:29 PM

Latest Report: Jul 28, 2016 at 8:00 PM


Visibility: 10 mi

Pressure: 29.95 "Hg

Humidity: 33%

Dew Point: 57 °F

Location of MontpellierLocation

Past Weather in Montpellier — Graph

°F

Montpellier Temperature Yesterday

Maximum temperature yesterday: 91 °F (at 3:30 PM)
Minimum temperature yesterday: 72 °F (at 4:30 AM)
Average temperature yesterday: 83 °F

High & Low Weather Summary for the Past Weeks

 TemperatureHumidityPressure
High95 °F (Jul 26, 2:30 PM)94% (Jul 18, 6:30 AM)30.21 "Hg (Jul 18, 6:30 AM)
Low59 °F (Jul 19, 6:00 AM)19% (Jul 16, 4:00 PM)29.92 "Hg (Jul 21, 4:30 PM)
Average75 °F56%30.05 "Hg
* Reported Jul 13 7:00 PM — Jul 28 7:00 PM, Montpellier, Weather by CustomWeather, © 2016

Note: Actual official high and low records may vary slightly from our data, if they occured in-between our weather recording intervals... More about our weather records

Advertising

Montpellier Weather History for the Previous 24 Hours

Scroll right to see more
 ConditionsComfort  
Time TempWeatherWind HumidityBarometerVisibility
7:00 PM
Thu, Jul 28
91 °FSunny.17 mph32%29.95 "Hg10 mi
6:30 PM93 °FPassing clouds.9 mph30%29.95 "HgN/A
6:00 PM91 °FSunny.7 mph34%29.95 "Hg10 mi
5:30 PM88 °FPassing clouds.9 mph49%29.95 "HgN/A
5:00 PM90 °FSunny.8 mph43%29.95 "Hg10 mi
4:30 PM88 °FSunny.7 mph38%29.98 "Hg10 mi
4:00 PM88 °FSunny.9 mph40%29.98 "Hg10 mi
3:30 PM86 °FPassing clouds.8 mph38%29.98 "HgN/A
3:00 PM86 °FPassing clouds.9 mph38%30.01 "HgN/A
2:30 PM84 °FPassing clouds.10 mph43%30.01 "HgN/A
2:00 PM84 °FSunny.8 mph40%30.01 "Hg10 mi
1:30 PM84 °FPassing clouds.7 mph40%30.04 "HgN/A
1:00 PM82 °FSunny.9 mph42%30.04 "Hg10 mi
12:30 PM82 °FSunny.10 mph45%30.04 "Hg10 mi
12:00 PM81 °FSunny.9 mph51%30.04 "Hg10 mi
11:30 AM81 °FSunny.9 mph48%30.04 "Hg10 mi
11:00 AM82 °FSunny.6 mph42%30.04 "Hg10 mi
10:30 AM82 °FSunny.1 mph42%30.04 "Hg10 mi
10:00 AM81 °FSunny.2 mph42%30.04 "Hg10 mi
9:30 AM79 °FSunny.7 mph45%30.04 "Hg10 mi
9:00 AM77 °FSunny.8 mph51%30.04 "Hg10 mi
8:30 AM75 °FSunny.8 mph54%30.04 "Hg10 mi
8:00 AM73 °FSunny.8 mph57%30.04 "Hg10 mi
7:30 AM72 °FSunny.9 mph57%30.04 "Hg10 mi
7:00 AM70 °FClear.7 mph60%30.04 "Hg10 mi
6:30 AM72 °FClear.5 mph57%30.04 "Hg10 mi
6:00 AM70 °FClear.3 mph60%30.04 "Hg10 mi
5:30 AM72 °FClear.8 mph57%30.04 "Hg10 mi
5:00 AM72 °FClear.7 mph57%30.04 "Hg10 mi
4:30 AM73 °FClear.2 mph53%30.04 "Hg10 mi
4:00 AM73 °FClear.5 mph53%30.04 "Hg10 mi
3:30 AM75 °FClear.5 mph50%30.04 "Hg10 mi
3:00 AM73 °FClear.3 mph53%30.04 "Hg10 mi
2:30 AM75 °FPassing clouds.3 mph50%30.04 "HgN/A
2:00 AM77 °FPassing clouds.3 mph44%30.04 "HgN/A
1:30 AM77 °FClear.3 mph44%30.04 "Hg10 mi
1:00 AM77 °FClear.5 mph47%30.04 "Hg10 mi
12:30 AM79 °FPassing clouds.7 mph42%30.04 "HgN/A
12:00 AM81 °FClear.14 mph39%30.04 "Hg10 mi
11:30 PM
Wed, Jul 27
81 °FClear.12 mph39%30.04 "Hg10 mi
11:00 PM82 °FClear.12 mph37%30.01 "Hg10 mi
10:34 PM82 °FClear.14 mph37%30.01 "Hg10 mi
10:00 PM84 °FSunny.15 mph35%30.01 "Hg10 mi
9:30 PM84 °FSunny.14 mph37%29.98 "Hg10 mi
9:00 PM86 °FSunny.16 mph35%29.98 "Hg10 mi
8:30 PM86 °FSunny.17 mph35%29.98 "Hg10 mi
8:00 PM88 °FSunny.18 mph33%29.95 "Hg10 mi
Weather by CustomWeather, © 2016

See weather overviewHow to use our weather pages